Seward, AK

8:41 AM AKDT on May 22, 2018 (GMT -0800)
Seward

Weather History for PAWD - December, 2012

Change the Weather History Date:

Sunday, December 9, 2012

  Actual Average Record
Temperature  
Mean Temperature 32 °F -  
Max Temperature 34 °F 30 °F 47 °F (1986)
Min Temperature 30 °F 21 °F -2 °F (1966)
Degree Days  
Heating Degree Days 33    
Moisture  
Dew Point 32 °F    
Average Humidity 96    
Maximum Humidity 100    
Minimum Humidity 92    
Precipitation  
Precipitation 0.15 in - - ()
Sea Level Pressure  
Sea Level Pressure 29.42 in    
Wind  
Wind Speed 1 mph (NNW)    
Max Wind Speed 4 mph    
Max Gust Speed -    
Visibility 7 miles    
Events Rain    
Averages and records for this station are not official NWS values.
T = Trace of Precipitation, MM = Missing Value Source: NWS Daily Summary

Daily Weather History Graph

Daily Weather History Graph

Search for Another Location

Airport or City:

Astronomy

Dec. 09, 2012 Rise Set
Actual Time 9:49 AM AKST 3:51 PM AKST
Civil Twilight 8:52 AM AKST 4:48 PM AKST
Nautical Twilight 7:55 AM AKST 5:44 PM AKST
Astronomical Twilight 7:04 AM AKST 6:36 PM AKST
Moon 4:42 AM AKST (12/9) 1:50 PM AKST (12/9)
Length of Visible Light 7h 55m
Length of Day
6h 01m
Waning Crescent, 17% of the Moon is Illuminated
Dec 9
Waning Crescent
Dec 12
New
Dec 19
First Quarter
Dec 28
Full
Jan 4
Last Quarter

Hourly Weather History & Observations

Time (AKST) Temp. Windchill Dew Point Humidity Pressure Visibility Wind Dir Wind Speed Gust Speed Precip Events Conditions
12:53 AM 33.1 °F 30.0 °F 32.0 °F 96% 29.25 in 10.0 mi NNW 3.5 mph - N/A   Overcast
1:53 AM 32.0 °F 28.7 °F 30.9 °F 96% 29.26 in 10.0 mi North 3.5 mph - N/A   Overcast
3:06 AM 32.0 °F - 30.2 °F 93% 29.28 in 8.0 mi Calm Calm - N/A   Overcast
3:28 AM 30.2 °F - 30.2 °F 100% 29.28 in 5.0 mi Calm Calm - N/A   Overcast
3:53 AM 32.0 °F - 30.9 °F 96% 29.29 in 6.0 mi Calm Calm - N/A   Overcast
4:53 AM 33.1 °F - 32.0 °F 96% 29.29 in 8.0 mi Calm Calm - 0.00 in Rain Light Rain
5:53 AM 33.1 °F - 32.0 °F 96% 29.31 in 10.0 mi Calm Calm - 0.00 in   Overcast
6:53 AM 32.0 °F - 30.9 °F 96% 29.33 in 6.0 mi Calm Calm - N/A   Overcast
7:53 AM 30.9 °F - 30.0 °F 96% 29.34 in 10.0 mi Calm Calm - N/A   Overcast
8:19 AM 30.2 °F - 30.2 °F 100% 29.34 in 9.0 mi Calm Calm - N/A   Overcast
8:53 AM 32.0 °F 28.7 °F 30.9 °F 96% 29.36 in 10.0 mi NNW 3.5 mph - N/A   Overcast
9:53 AM 32.0 °F - 30.9 °F 96% 29.37 in 10.0 mi Calm Calm - N/A   Overcast
10:18 AM 32.0 °F - 30.2 °F 93% 29.37 in 10.0 mi Calm Calm - N/A   Overcast
10:53 AM 33.1 °F - 30.9 °F 92% 29.38 in 10.0 mi Calm Calm - N/A   Overcast
11:53 AM 33.1 °F - 32.0 °F 96% 29.39 in 7.0 mi Calm Calm - 0.00 in   Overcast
12:29 PM 33.8 °F - 32.0 °F 93% 29.40 in 9.0 mi Calm Calm - 0.00 in   Overcast
12:39 PM 33.8 °F - 32.0 °F 93% 29.40 in 10.0 mi Calm Calm - 0.00 in   Overcast
12:51 PM 33.8 °F - 32.0 °F 93% 29.40 in 7.0 mi Calm Calm - 0.00 in   Overcast
12:53 PM 33.1 °F - 32.0 °F 96% 29.41 in 6.0 mi Calm Calm - 0.00 in   Overcast
1:53 PM 34.0 °F - 33.1 °F 96% 29.42 in 5.0 mi Calm Calm - 0.00 in Rain Light Rain
2:20 PM 33.8 °F - 33.8 °F 100% 29.42 in 6.0 mi Calm Calm - 0.00 in Rain Light Rain
2:35 PM 33.8 °F - 33.8 °F 100% 29.43 in 5.0 mi Calm Calm - 0.00 in Rain Light Rain
2:53 PM 34.0 °F - 33.1 °F 96% 29.43 in 4.0 mi Calm Calm - 0.00 in Rain Light Rain
3:53 PM 34.0 °F - 33.1 °F 96% 29.44 in 9.0 mi Calm Calm - 0.01 in   Overcast
4:53 PM 34.0 °F - 33.1 °F 96% 29.46 in 7.0 mi Calm Calm - 0.02 in   Overcast
5:53 PM 34.0 °F - 33.1 °F 96% 29.47 in 9.0 mi Calm Calm - 0.01 in   Overcast
6:53 PM 33.1 °F - 32.0 °F 96% 29.48 in 9.0 mi Calm Calm - 0.01 in   Overcast
7:53 PM 34.0 °F - 33.1 °F 96% 29.50 in 4.0 mi Calm Calm - 0.01 in Rain Light Rain
8:21 PM 33.8 °F 30.8 °F 32.0 °F 93% 29.50 in 2.5 mi North 3.5 mph - 0.01 in Rain Light Rain
8:28 PM 33.8 °F - 33.8 °F 100% 29.50 in 2.5 mi Calm Calm - 0.02 in Rain Light Rain
8:35 PM 33.8 °F - 33.8 °F 100% 29.50 in 3.0 mi Calm Calm - 0.02 in Rain Light Rain
8:53 PM 34.0 °F - 33.1 °F 96% 29.51 in 5.0 mi Calm Calm - 0.03 in Rain Light Rain
9:53 PM 34.0 °F - 33.1 °F 96% 29.51 in 5.0 mi Calm Calm - 0.03 in Rain Light Rain
10:41 PM 33.8 °F - 32.0 °F 93% 29.51 in 4.0 mi Calm Calm - 0.02 in Rain Light Rain
10:53 PM 33.1 °F - 33.1 °F 100% 29.52 in 4.0 mi Calm Calm - 0.02 in Rain Light Rain
11:06 PM 33.8 °F - 33.8 °F 100% 29.52 in 5.0 mi Calm Calm - 0.01 in Rain Light Rain
11:30 PM 33.8 °F 30.8 °F 32.0 °F 93% 29.53 in 4.0 mi North 3.5 mph - 0.01 in   Overcast
11:42 PM 33.8 °F 30.8 °F 32.0 °F 93% 29.53 in 5.0 mi North 3.5 mph - 0.01 in   Overcast
11:50 PM 33.8 °F - 32.0 °F 93% 29.53 in 6.0 mi Calm Calm - 0.01 in   Overcast
11:53 PM 33.1 °F - 32.0 °F 96% 29.53 in 5.0 mi Calm Calm - 0.01 in   Overcast